Flag for Japan Weather past 2 weeks in Niigata, Japan

Now
82 °F

Passing clouds.


Feels Like: 87 °F
Forecast: 72 / 83 °F
Wind: 8 mph from Southwest

Location: Niigata Airport

Current Time: Jul 25, 2014 at 8:43:12 AM

Latest Report: Jul 25, 2014 at 8:00 AM


Visibility: N/A

Pressure: 29.86 "Hg

Humidity: 70%

Dew point: 72 °F

Location of NiigataLocation

Historic Weather in Niigata — Graph

°F

Niigata temperature yesterday

Maximum temperature yesterday: 84 °F (at 2:00 PM)
Minimum temperature yesterday: 73 °F (at 9:00 AM)
Average temperature yesterday: 80 °F

Past Weeks' High & Low Weather Summary

 TemperatureHumidityPressure
High86 °F (Jul 12, 1:00 PM)100% (Jul 11, 6:48 AM)29.92 "Hg (Jul 11, 6:48 AM)
Low70 °F (Jul 13, 5:00 PM)38% (Jul 12, 2:00 PM)29.27 "Hg (Jul 10, 9:00 PM)
Average77 °F78%29.73 "Hg
* Reported Jul 10 7:00 AM — Jul 25 7:00 AM, Niigata, Weather by CustomWeather, © 2014

Note: Actual official high and low records may vary slightly from our data, if they occured in-between our weather recording intervals... More about our weather records

Advertising

Niigata weather history for previous 24 hours

 ConditionsComfort  
Time TempWeatherWind HumidityBarometerVisibility
7:00 AM
Jul 25
81 °FScattered clouds.8 mph74%29.83 "HgN/A
9:00 PM
Jul 24
81 °FPartly cloudy.7 mph79%29.77 "HgN/A
8:00 PM81 °FPartly cloudy.7 mph79%29.74 "HgN/A
7:00 PM81 °FPassing clouds.10 mph79%29.71 "HgN/A
6:00 PM82 °FScattered clouds.10 mph79%29.71 "HgN/A
5:00 PM82 °FPassing clouds.12 mph74%29.68 "HgN/A
4:00 PM84 °FScattered clouds.16 mph66%29.68 "HgN/A
3:00 PM84 °FScattered clouds.15 mph66%29.68 "HgN/A
2:00 PM84 °FScattered clouds.13 mph70%29.68 "HgN/A
1:00 PM82 °FPartly sunny.8 mph74%29.68 "HgN/A
12:00 PM81 °FPartly sunny.5 mph84%29.68 "HgN/A
11:00 AM77 °FBroken clouds.6 mph89%29.68 "HgN/A
10:46 AM75 °FPartly sunny.5 mph94%29.68 "HgN/A
10:00 AM75 °FSprinkles. Partly sunny.3 mph89%29.68 "HgN/A
9:00 AM73 °FSprinkles. Broken clouds.3 mph94%29.65 "HgN/A
8:00 AM75 °FSprinkles. Fog.No wind94%29.65 "Hg3 mi
Weather by CustomWeather, © 2014

See weather overviewHow to use our weather pages